Tracking 22458 objects as of 4-Mar-2021
HD Live streaming from Space Station
objects crossing your sky now

SL-14 R/B

Track SL-14 R/B now!
10-day predictions


NORAD ID: 16194
Int'l Code: 1985-100B
Perigee: 1,232.2 km
Apogee: 1,255.9 km
Inclination: 82.5 °
Period: 110.2 minutes
Semi major axis: 7615 km
RCS: 4.9928 m2 (large)
Launch date: October 24, 1985
Source: Commonwealth of Independent States (former USSR) (CIS)
Launch site: PLESETSK MISSILE AND SPACE COMPLEX (PKMTR)

Note: This is a ROCKET BODY
aabbcc
Your satellite tracking list
Your tracking list is empty




NASA's NSSDC Master Catalog

Two Line Element Set (TLE):
1 16194U 85100B   21063.20277587 -.00000878  00000-0 -26960-2 0  9995
2 16194  82.5367 152.7738 0015612 217.3890 158.3974 13.06454848686226
Source of the keplerian elements: AFSPC